Vertical_Velocity
-0 -0 1 -0 -3 -1 -3 -1 -2 -1 -3 -3 -4 -2 3 1 3 -1 4 -1 6 3 -3 -1 6 -1 -3 -1 0 -1 -1 -1 -2
0 -1 -1 -0 -2 0 -1 -1 -0 -2 -3 -1 0 -3 2 -1 -1 -2 -1 -3 -0 -6 -1 3 5 -1 -4 -2 -1 -1 -2 -1 -2
-1 -2 1 0 -1 -0 -1 -2 -1 0 -2 -2 -2 1 -2 -1 -1 -1 -2 -1 -2 -2 2 5 1 -2 -1 -2 -3 -1 -0 -1 -0
-1 -2 1 2 0 1 1 -2 0 -3 -2 -2 0 1 -4 -4 -1 -1 -2 0 -3 -2 -2 -0 1 -0 -1 -1 -2 -1 -2 0 -1
-1 -1 1 1 -1 -0 1 -2 -2 -3 -2 -0 -0 -1 -1 -5 -2 -3 -3 -0 0 0 -1 -2 4 -3 -2 -2 -2 -2 -1 -2 -1
-0 -1 1 -0 2 2 3 -5 1 3 -1 -1 -2 -1 -2 -2 -1 -4 -0 2 0 -2 -1 -2 5 1 -1 -1 -2 -1 -0 0 -2
-1 -0 1 1 2 1 1 2 1 0 2 -1 1 -2 -1 -2 -3 -4 0 -2 -1 -2 -0 1 1 3 2 -2 -1 -2 -1 -1 -2
-0 -1 -2 -1 0 -2 -1 -0 -2 1 -1 0 -2 -2 -2 -2 1 0 -0 -3 -1 2 0 -1 -1 -3 -1 5 0 -0 -1 -1 1
-1 -1 -2 1 2 -1 0 -3 -2 9 -1 2 1 -0 -1 -2 0 1 1 -2 -3 -2 -0 -1 -1 1 -2 -2 3 -2 -1 -0 1
-3 0 -4 0 -0 -2 1 -1 1 -1 0 2 -2 -1 -1 -1 -2 -2 -0 -2 1 -2 -1 -3 -1 -1 1 -0 -2 1 -0 -1 -1
-1 -2 -3 -1 2 3 -0 -3 -1 3 -1 1 -3 -1 -1 -3 -0 -1 -2 -2 -1 -1 -1 -2 -1 -1 -2 -2 -2 1 -2 -0 -2
-0 -1 -1 -2 3 1 -1 -2 1 -3 1 -1 -3 -2 -1 -1 -1 -1 -2 -0 -0 0 -0 -2 -1 -2 -0 -2 -2 -2 -2 -1 -1
2 -0 0 -3 1 1 0 -2 -1 -1 -1 -2 -1 -2 -1 -2 -3 -1 -1 -1 -1 -1 -1 -0 -1 -1 -0 -1 -1 -1 -1 -1 -1
-1 1 2 -1 0 2 0 -0 -2 -2 -0 -1 0 -1 -3 -1 -0 -0 -1 -1 -1 -1 -1 -1 1 -1 -1 -1 -1 -1 -0 0 -0
3 -0 -2 -0 2 1 1 -1 2 -2 -2 -1 -1 -0 1 0 -1 1 -0 0 -1 -0 -1 -1 -0 -0 -0 -1 -1 -0 -1 -1 -2
-0 1 2 -1 -2 -3 0 -0 -2 1 2 -4 3 2 2 1 -1 -1 2 -0 -0 -0 -1 -1 1 1 -1 -1 -1 -0 0 0 0
-2 1 -0 0 -1 -1 -2 -2 -3 1 2 -4 -1 -0 3 2 2 -2 0 1 0 1 -2 -2 0 2 -0 -1 -2 -1 -1 0 -0
-0 1 -1 -1 -0 -2 -2 -3 -2 -4 0 6 -1 -2 1 -1 2 2 -0 1 0 2 1 -2 -1 2 1 -1 -1 -0 -1 1 0
-1 1 0 1 -2 -2 -1 -2 -2 -1 -4 -3 2 1 -2 -2 -0 1 0 1 1 0 -1 -1 3 -0 -0 -1 1 -1 -0 1 1
-2 -1 0 -1 -0 -2 -2 -3 -3 -1 -2 -2 -2 2 -0 -2 -2 -1 -3 -2 2 -1 -5 -0 1 2 -2 -2 -2 -3 -1 -0 0
Height
1562 1564 1566 1568 1569 1571 1573 1574 1575 1576 1576 1577 1578 1580 1580 1580 1579 1579 1580 1581 1582 1582 1582 1582 1581 1581 1581 1580 1579 1579 1578 1577 1576
1563 1565 1567 1569 1571 1573 1575 1576 1577 1577 1579 1580 1581 1583 1582 1582 1583 1583 1583 1584 1584 1585 1585 1585 1584 1584 1584 1583 1582 1582 1581 1580 1579
1564 1566 1568 1571 1572 1574 1576 1578 1579 1580 1580 1582 1583 1583 1584 1584 1585 1586 1586 1587 1588 1588 1588 1588 1587 1588 1587 1585 1584 1584 1583 1582 1581
1564 1567 1570 1572 1574 1576 1578 1580 1582 1581 1582 1583 1584 1585 1584 1585 1587 1588 1588 1590 1590 1590 1591 1591 1591 1590 1589 1588 1587 1586 1585 1584 1583
1565 1567 1570 1573 1575 1578 1580 1582 1584 1583 1584 1584 1585 1585 1585 1586 1587 1588 1590 1592 1592 1593 1593 1594 1593 1593 1592 1591 1590 1588 1587 1586 1585
1566 1569 1572 1575 1577 1580 1582 1584 1586 1587 1585 1586 1587 1587 1587 1588 1589 1589 1592 1594 1595 1594 1595 1596 1596 1595 1594 1594 1592 1591 1589 1588 1587
1567 1570 1573 1576 1579 1582 1584 1585 1587 1588 1587 1588 1589 1589 1589 1589 1590 1591 1593 1595 1596 1597 1597 1598 1598 1598 1597 1596 1595 1594 1592 1590 1589
1568 1571 1574 1576 1579 1581 1584 1586 1588 1589 1589 1590 1590 1591 1591 1592 1593 1595 1596 1596 1597 1598 1599 1600 1600 1600 1600 1599 1598 1597 1595 1593 1592
1568 1571 1574 1576 1579 1581 1584 1586 1588 1590 1591 1592 1593 1594 1595 1595 1596 1598 1599 1598 1598 1599 1600 1601 1601 1601 1602 1601 1601 1599 1598 1596 1595
1568 1571 1574 1577 1579 1582 1584 1587 1589 1590 1593 1594 1595 1596 1596 1597 1599 1600 1601 1601 1601 1600 1600 1601 1601 1602 1603 1603 1603 1603 1601 1599 1597
1568 1570 1574 1577 1581 1583 1585 1588 1590 1592 1594 1595 1596 1597 1598 1599 1601 1601 1602 1602 1602 1602 1602 1602 1602 1601 1602 1604 1604 1604 1604 1602 1600
1567 1570 1574 1578 1581 1583 1585 1588 1590 1592 1594 1596 1598 1599 1601 1602 1602 1603 1603 1604 1604 1604 1605 1604 1604 1604 1603 1603 1604 1604 1603 1602 1602
1567 1570 1574 1577 1581 1583 1585 1587 1590 1592 1594 1596 1598 1600 1602 1603 1604 1605 1605 1606 1606 1606 1606 1606 1605 1605 1604 1604 1604 1603 1603 1603 1602
1567 1571 1574 1577 1580 1583 1585 1588 1590 1592 1595 1597 1600 1602 1603 1605 1606 1606 1607 1607 1608 1608 1608 1608 1608 1607 1607 1606 1606 1605 1605 1604 1603
1566 1569 1573 1577 1580 1583 1586 1588 1591 1593 1596 1598 1601 1603 1605 1607 1608 1609 1609 1609 1609 1610 1610 1610 1610 1609 1609 1608 1608 1607 1606 1606 1605
1564 1568 1571 1575 1579 1582 1586 1589 1591 1594 1597 1598 1601 1605 1607 1608 1609 1610 1611 1611 1611 1612 1612 1612 1612 1611 1611 1611 1610 1610 1609 1608 1607
1562 1566 1570 1573 1577 1581 1585 1588 1591 1594 1597 1599 1601 1605 1609 1609 1610 1611 1612 1612 1613 1613 1613 1613 1614 1613 1613 1612 1612 1611 1610 1609 1609
1559 1564 1568 1572 1576 1579 1583 1587 1590 1593 1597 1600 1601 1603 1605 1608 1610 1611 1613 1613 1614 1614 1614 1614 1614 1614 1613 1613 1613 1613 1612 1611 1610
1557 1561 1566 1570 1574 1578 1582 1586 1590 1593 1595 1598 1600 1601 1603 1606 1609 1610 1612 1613 1614 1614 1615 1615 1614 1614 1614 1614 1614 1614 1613 1612 1611
1553 1558 1563 1567 1571 1576 1580 1584 1588 1593 1595 1597 1600 1601 1603 1606 1607 1608 1612 1613 1614 1614 1615 1615 1614 1614 1614 1614 1614 1614 1613 1612 1611